Location: Melham
(44.5575°N, 97.6865°W)
Time: 06:47:15
(UTC+00:00)

ISS - Visible Passes

Search period start: 26 November 2020 00:00
Search period end: 06 December 2020 00:00
Orbit: 418 x 421 km, 51.6° (Epoch: 26 November)

Date Brightness Start Highest point End Pass type
(mag) Time Alt. Az. Time Alt. Az. Time Alt. Az.
26 Nov -3.0 00:07:42 10° W 00:10:56 43° NNW 00:12:47 21° NE visible
26 Nov -0.5 01:45:31 10° WNW 01:45:45 11° NW 01:45:45 11° NW visible
27 Nov -1.9 00:57:48 10° WNW 01:00:09 24° NNW 01:00:09 24° NNW visible
28 Nov -2.3 00:10:02 10° WNW 00:13:00 28° NNW 00:14:32 20° NNE visible
28 Nov -2.6 23:22:16 10° W 23:25:22 33° NNW 23:28:29 10° NE visible
29 Nov -1.7 01:00:01 10° NW 01:01:51 21° NNW 01:01:51 21° NNW visible
30 Nov -2.2 00:12:20 10° WNW 00:15:08 23° N 00:16:13 20° NNE visible
30 Nov -2.2 23:24:34 10° WNW 23:27:26 25° N 23:30:18 10° NE visible
01 Dec -1.7 01:01:55 10° NW 01:03:33 21° NNW 01:03:33 21° NNW visible
02 Dec -2.4 00:14:22 10° NW 00:17:14 25° N 00:17:58 23° NNE visible
02 Dec -2.3 23:26:43 10° NW 23:29:31 24° N 23:32:19 10° ENE visible
03 Dec -2.0 01:03:36 10° NW 01:05:23 27° NW 01:05:23 27° NW visible
04 Dec -3.0 00:16:04 10° NW 00:19:13 35° NNE 00:19:55 31° NE visible
04 Dec -0.2 01:52:50 10° WNW 01:52:53 10° WNW 01:52:53 10° WNW visible
04 Dec -2.6 23:28:31 10° NW 23:31:31 29° NNE 23:34:31 10° ENE visible
05 Dec -2.5 01:05:14 10° WNW 01:07:31 40° WNW 01:07:31 40° WNW visible
